Location: Liberec
(50.7830°N, 15.0500°E)
Time: 15:13:24
(UTC+02:00)

ISS - Visible Passes

Search period start: 18 September 2018 00:00
Search period end: 28 September 2018 00:00
Orbit: 402 x 408 km, 51.6° (Epoch: 18 September)

Date Brightness Start Highest point End Pass type
(mag) Time Alt. Az. Time Alt. Az. Time Alt. Az.
22 Sep -1.8 20:27:13 10° S 20:28:32 16° SSE 20:28:32 16° SSE visible
23 Sep -1.6 19:36:35 10° SSE 19:37:48 12° SE 19:38:59 10° ESE visible
23 Sep -1.9 21:10:30 10° SW 21:11:51 22° SW 21:11:51 22° SW visible
24 Sep -3.0 20:18:46 10° SW 20:21:45 32° SSE 20:22:16 30° SE visible
24 Sep -0.7 21:54:45 10° W 21:54:57 11° W 21:54:57 11° W visible
25 Sep -2.3 19:27:16 10° SSW 19:29:51 21° SE 19:32:27 10° E visible
25 Sep -3.1 21:02:43 10° WSW 21:05:12 47° SW 21:05:12 47° SW visible
26 Sep -3.7 20:10:45 10° SW 20:13:59 55° SSE 20:15:20 30° E visible
26 Sep -1.0 21:47:10 10° W 21:47:59 17° W 21:47:59 17° W visible
27 Sep -3.1 19:18:55 10° SW 19:21:59 37° SSE 19:25:05 10° E visible
27 Sep -3.6 20:55:03 10° W 20:58:01 69° WNW 20:58:01 69° WNW visible
